timestamp,wind_dir_avg,wind_spd_avg,wind_spd_max_dir,wind_spd_gust,battery_voltage,lat,long
2021-12-27 00:04:01+00:00,358.0,9.96,2.0,11.93,12.49,47.59359,-54.27349
2021-12-27 00:14:01+00:00,37.0,13.84,36.0,15.38,12.49,47.59359,-54.27349
2021-12-27 00:24:01+00:00,39.0,13.11,37.0,14.31,12.49,47.59359,-54.27349
2021-12-27 00:34:01+00:00,39.0,12.9,44.0,14.36,12.49,47.59359,-54.27349
2021-12-27 00:44:01+00:00,48.0,12.3,43.0,14.02,12.49,47.59359,-54.27349
2021-12-27 00:54:01+00:00,48.0,11.9,49.0,13.43,12.49,47.59359,-54.27349
2021-12-27 01:04:01+00:00,43.0,12.61,46.0,14.21,12.49,47.59359,-54.27349
2021-12-27 01:14:01+00:00,43.0,13.2,43.0,14.78,12.49,47.59359,-54.27349
2021-12-27 01:24:01+00:00,42.0,12.75,42.0,13.91,12.49,47.59359,-54.27349
2021-12-27 01:34:01+00:00,23.0,10.41,28.0,11.32,12.49,47.59359,-54.27349
2021-12-27 01:44:01+00:00,4.0,8.06,350.0,10.04,12.49,47.59359,-54.27349
2021-12-27 01:54:01+00:00,352.0,9.31,345.0,10.93,12.49,47.59359,-54.27349
2021-12-27 02:04:01+00:00,358.0,8.32,12.0,10.61,12.49,47.59359,-54.27349
2021-12-27 02:14:00+00:00,349.0,8.29,345.0,9.7,12.41,47.59359,-54.27349
2021-12-27 02:24:00+00:00,359.0,9.27,356.0,10.97,12.41,47.59359,-54.27349
2021-12-27 02:34:00+00:00,356.0,7.66,359.0,9.38,12.41,47.59359,-54.27349
2021-12-27 02:44:00+00:00,357.0,7.38,359.0,8.29,12.41,47.59359,-54.27349
2021-12-27 02:54:00+00:00,354.0,7.1,355.0,8.48,12.41,47.59359,-54.27349
2021-12-27 03:04:00+00:00,358.0,7.59,0.0,8.53,12.41,47.59359,-54.27349
2021-12-27 03:14:01+00:00,355.0,6.15,334.0,7.61,12.41,47.59359,-54.27349
2021-12-27 03:24:01+00:00,349.0,6.63,351.0,7.35,12.41,47.59359,-54.27349
2021-12-27 03:34:01+00:00,332.0,5.06,331.0,5.95,12.41,47.59359,-54.27349
2021-12-27 03:44:01+00:00,352.0,4.45,346.0,5.2,12.41,47.59359,-54.27349
2021-12-27 03:54:01+00:00,324.0,4.55,321.0,5.33,12.41,47.59359,-54.27349
2021-12-27 04:04:01+00:00,331.0,4.21,345.0,5.33,12.41,47.59359,-54.27349
2021-12-27 04:14:01+00:00,319.0,4.43,321.0,4.95,12.41,47.59359,-54.27349
2021-12-27 04:24:01+00:00,4.0,5.29,356.0,9.13,12.41,47.59359,-54.27349
2021-12-27 04:34:01+00:00,320.0,4.52,319.0,5.18,12.41,47.59359,-54.27349
2021-12-27 04:44:01+00:00,332.0,4.87,324.0,6.38,12.41,47.59359,-54.27349
2021-12-27 04:54:01+00:00,10.0,8.21,11.0,9.23,12.41,47.59359,-54.27349
2021-12-27 05:04:01+00:00,334.0,7.53,12.0,9.62,12.41,47.59359,-54.27349
2021-12-27 05:14:00+00:00,314.0,11.13,309.0,13.06,12.41,47.59359,-54.27349
2021-12-27 05:24:00+00:00,313.0,10.61,306.0,12.57,12.41,47.59359,-54.27349
2021-12-27 05:34:00+00:00,322.0,7.49,305.0,10.94,12.41,47.59359,-54.27349
2021-12-27 05:44:00+00:00,312.0,8.1,307.0,11.44,12.41,47.59359,-54.27349
2021-12-27 05:54:00+00:00,333.0,7.22,334.0,8.98,12.41,47.59359,-54.27349
2021-12-27 06:04:00+00:00,324.0,9.83,313.0,12.61,12.41,47.59359,-54.27349
2021-12-27 06:14:00+00:00,326.0,11.67,321.0,14.48,12.33,47.59359,-54.27349
2021-12-27 06:24:00+00:00,344.0,9.98,317.0,13.02,12.33,47.59359,-54.27349
2021-12-27 06:34:00+00:00,336.0,9.07,312.0,11.77,12.33,47.59359,-54.27349
2021-12-27 06:44:00+00:00,349.0,12.41,326.0,14.83,12.33,47.59359,-54.27349
2021-12-27 06:54:00+00:00,337.0,13.16,323.0,16.59,12.33,47.59359,-54.27349
2021-12-27 07:04:00+00:00,327.0,12.34,324.0,14.62,12.33,47.59359,-54.27349
2021-12-27 07:14:01+00:00,331.0,10.09,319.0,12.6,12.33,47.59359,-54.27349
2021-12-27 07:24:01+00:00,327.0,10.51,319.0,13.08,12.33,47.59359,-54.27349
2021-12-27 07:34:01+00:00,314.0,12.96,314.0,14.34,12.33,47.59359,-54.27349
2021-12-27 07:44:01+00:00,317.0,12.17,316.0,14.3,12.33,47.59359,-54.27349
2021-12-27 07:54:01+00:00,315.0,12.92,313.0,14.53,12.33,47.59359,-54.27349
2021-12-27 08:04:01+00:00,316.0,13.37,319.0,14.93,12.33,47.59359,-54.27349
2021-12-27 08:14:00+00:00,315.0,11.93,315.0,13.89,12.33,47.59359,-54.27349
2021-12-27 08:24:00+00:00,317.0,11.55,312.0,13.51,12.33,47.59359,-54.27349
2021-12-27 08:34:00+00:00,324.0,12.08,317.0,14.29,12.33,47.59359,-54.27349
2021-12-27 08:44:00+00:00,352.0,9.83,343.0,11.71,12.33,47.59359,-54.27349
2021-12-27 08:54:00+00:00,358.0,12.63,4.0,15.03,12.33,47.59359,-54.27349
2021-12-27 09:04:00+00:00,352.0,12.18,353.0,15.12,12.33,47.59359,-54.27349
2021-12-27 09:14:00+00:00,341.0,14.05,332.0,17.37,12.41,47.59359,-54.27349
2021-12-27 09:24:00+00:00,331.0,13.56,323.0,16.37,12.41,47.59359,-54.27349
2021-12-27 09:34:00+00:00,320.0,13.36,322.0,15.35,12.41,47.59359,-54.27349
2021-12-27 09:44:00+00:00,327.0,11.85,314.0,14.27,12.41,47.59359,-54.27349
2021-12-27 09:54:00+00:00,330.0,13.34,323.0,17.46,12.41,47.59359,-54.27349
2021-12-27 10:04:00+00:00,350.0,11.77,345.0,12.81,12.41,47.59359,-54.27349
2021-12-27 10:14:01+00:00,340.0,11.55,326.0,13.84,12.41,47.59359,-54.27349
2021-12-27 10:24:01+00:00,337.0,12.39,326.0,15.6,12.41,47.59359,-54.27349
2021-12-27 10:34:01+00:00,340.0,12.69,323.0,15.2,12.41,47.59359,-54.27349
2021-12-27 10:44:01+00:00,328.0,14.35,324.0,17.48,12.41,47.59359,-54.27349
2021-12-27 10:54:01+00:00,356.0,11.38,342.0,14.05,12.41,47.59359,-54.27349
2021-12-27 11:04:01+00:00,343.0,11.14,337.0,14.91,12.41,47.59359,-54.27349
2021-12-27 11:14:00+00:00,351.0,12.26,346.0,14.37,12.41,47.59359,-54.27349
2021-12-27 11:24:00+00:00,349.0,11.53,338.0,14.34,12.41,47.59359,-54.27349
2021-12-27 11:34:00+00:00,338.0,13.02,325.0,16.49,12.41,47.59359,-54.27349
2021-12-27 11:44:00+00:00,346.0,11.69,321.0,13.27,12.41,47.59359,-54.27349
2021-12-27 11:54:00+00:00,350.0,11.2,353.0,13.48,12.41,47.59359,-54.27349
2021-12-27 12:04:00+00:00,349.0,11.22,345.0,13.05,12.41,47.59359,-54.27349
2021-12-27 12:14:00+00:00,349.0,11.97,345.0,12.89,12.41,47.59359,-54.27349
2021-12-27 12:24:00+00:00,336.0,11.44,322.0,14.46,12.41,47.59359,-54.27349
2021-12-27 12:34:00+00:00,349.0,10.22,355.0,11.21,12.41,47.59359,-54.27349
2021-12-27 12:44:00+00:00,345.0,10.34,343.0,11.93,12.41,47.59359,-54.27349
2021-12-27 12:54:00+00:00,349.0,10.5,352.0,11.86,12.41,47.59359,-54.27349
2021-12-27 13:04:00+00:00,347.0,9.56,350.0,11.04,12.41,47.59359,-54.27349
2021-12-27 13:14:00+00:00,343.0,10.17,342.0,11.92,12.65,47.59359,-54.27349
2021-12-27 13:24:00+00:00,350.0,8.97,355.0,11.46,12.65,47.59359,-54.27349
2021-12-27 13:34:00+00:00,347.0,10.78,346.0,12.45,12.65,47.59359,-54.27349
2021-12-27 13:44:00+00:00,350.0,13.56,348.0,16.26,12.65,47.59359,-54.27349
2021-12-27 13:54:00+00:00,348.0,13.38,348.0,16.05,12.65,47.59359,-54.27349
2021-12-27 14:04:00+00:00,340.0,11.1,321.0,13.89,12.65,47.59359,-54.27349
2021-12-27 14:14:01+00:00,337.0,10.77,322.0,13.89,13.21,47.59359,-54.27349
2021-12-27 14:24:01+00:00,343.0,11.09,348.0,12.66,13.21,47.59359,-54.27349
2021-12-27 14:34:01+00:00,343.0,10.78,342.0,13.13,13.21,47.59359,-54.27349
2021-12-27 14:44:01+00:00,344.0,11.8,338.0,14.01,13.21,47.59359,-54.27349
2021-12-27 14:54:01+00:00,345.0,12.25,333.0,14.44,13.21,47.59359,-54.27349
2021-12-27 15:04:01+00:00,343.0,14.01,341.0,15.56,13.21,47.59359,-54.27349
2021-12-27 15:14:01+00:00,347.0,11.56,343.0,13.02,13.68,47.59359,-54.27349
2021-12-27 15:24:01+00:00,339.0,14.19,328.0,17.88,13.68,47.59359,-54.27349
2021-12-27 15:34:01+00:00,334.0,12.83,325.0,16.24,13.68,47.59359,-54.27349
2021-12-27 15:44:01+00:00,340.0,11.74,326.0,13.68,13.68,47.59359,-54.27349
2021-12-27 15:54:01+00:00,325.0,15.49,329.0,18.15,13.68,47.59359,-54.27349
2021-12-27 16:04:01+00:00,340.0,14.09,329.0,17.33,13.68,47.59359,-54.27349
2021-12-27 16:14:00+00:00,343.0,13.92,329.0,16.84,14.32,47.59359,-54.27349
2021-12-27 16:24:00+00:00,344.0,14.4,347.0,16.55,14.32,47.59359,-54.27349
2021-12-27 16:34:00+00:00,340.0,14.9,333.0,18.67,14.32,47.59359,-54.27349
2021-12-27 16:44:00+00:00,333.0,14.09,328.0,18.33,14.32,47.59359,-54.27349
2021-12-27 16:54:00+00:00,335.0,14.49,326.0,17.78,14.32,47.59359,-54.27349
2021-12-27 17:04:00+00:00,340.0,12.36,326.0,14.44,14.32,47.59359,-54.27349
2021-12-27 17:14:00+00:00,332.0,15.12,328.0,17.67,13.76,47.59359,-54.27349
2021-12-27 17:24:00+00:00,339.0,11.42,341.0,15.24,13.76,47.59359,-54.27349
2021-12-27 17:34:00+00:00,342.0,12.12,323.0,14.21,13.76,47.59359,-54.27349
2021-12-27 17:44:00+00:00,341.0,11.05,329.0,13.66,13.76,47.59359,-54.27349
2021-12-27 17:54:00+00:00,345.0,10.9,329.0,13.28,13.76,47.59359,-54.27349
2021-12-27 18:04:00+00:00,341.0,13.16,346.0,15.19,13.76,47.59359,-54.27349
2021-12-27 18:14:00+00:00,335.0,12.57,326.0,15.55,13.05,47.59359,-54.27349
2021-12-27 18:24:00+00:00,339.0,11.77,330.0,14.44,13.05,47.59359,-54.27349
2021-12-27 18:34:00+00:00,339.0,12.3,329.0,15.88,13.05,47.59359,-54.27349
2021-12-27 18:44:00+00:00,345.0,11.48,323.0,13.62,13.05,47.59359,-54.27349
2021-12-27 18:54:00+00:00,346.0,11.99,333.0,14.98,13.05,47.59359,-54.27349
2021-12-27 19:04:00+00:00,351.0,12.68,356.0,14.24,13.05,47.59359,-54.27349
2021-12-27 19:14:01+00:00,346.0,11.56,349.0,13.51,12.65,47.59359,-54.27349
2021-12-27 19:24:01+00:00,350.0,11.63,354.0,12.82,12.65,47.59359,-54.27349
2021-12-27 19:34:01+00:00,355.0,13.08,355.0,14.17,12.65,47.59359,-54.27349
2021-12-27 19:44:01+00:00,359.0,11.7,359.0,13.77,12.65,47.59359,-54.27349
2021-12-27 19:54:01+00:00,2.0,13.11,3.0,15.37,12.65,47.59359,-54.27349
2021-12-27 20:04:01+00:00,358.0,12.08,2.0,14.13,12.65,47.59359,-54.27349
2021-12-27 20:14:01+00:00,355.0,13.71,356.0,17.41,12.57,47.59359,-54.27349
2021-12-27 20:24:01+00:00,355.0,12.01,355.0,14.35,12.57,47.59359,-54.27349
2021-12-27 20:34:01+00:00,358.0,11.19,357.0,13.23,12.57,47.59359,-54.27349
2021-12-27 20:44:01+00:00,357.0,10.93,359.0,12.49,12.57,47.59359,-54.27349
2021-12-27 20:54:01+00:00,358.0,9.92,356.0,12.0,12.57,47.59359,-54.27349
2021-12-27 21:04:01+00:00,0.0,12.25,0.0,14.49,12.57,47.59359,-54.27349
2021-12-27 21:14:01+00:00,2.0,12.26,0.0,18.57,12.57,47.59359,-54.27349
2021-12-27 21:24:01+00:00,1.0,12.6,358.0,15.43,12.57,47.59359,-54.27349
2021-12-27 21:34:01+00:00,6.0,11.68,4.0,14.91,12.57,47.59359,-54.27349
2021-12-27 21:44:01+00:00,11.0,15.32,16.0,17.6,12.57,47.59359,-54.27349
2021-12-27 21:54:01+00:00,6.0,14.01,2.0,16.17,12.57,47.59359,-54.27349
2021-12-27 22:04:01+00:00,4.0,14.33,4.0,16.95,12.57,47.59359,-54.27349
2021-12-27 22:14:01+00:00,8.0,12.49,1.0,15.06,12.49,47.59359,-54.27349
2021-12-27 22:24:01+00:00,3.0,14.85,2.0,17.88,12.49,47.59359,-54.27349
2021-12-27 22:34:01+00:00,3.0,14.2,8.0,16.13,12.49,47.59359,-54.27349
2021-12-27 22:44:01+00:00,7.0,13.16,18.0,16.01,12.49,47.59359,-54.27349
2021-12-27 22:54:01+00:00,4.0,15.48,1.0,17.08,12.49,47.59359,-54.27349
2021-12-27 23:04:01+00:00,7.0,14.04,1.0,17.14,12.49,47.59359,-54.27349
2021-12-27 23:14:00+00:00,7.0,13.84,14.0,15.43,12.49,47.59359,-54.27349
2021-12-27 23:24:00+00:00,6.0,13.82,2.0,16.69,12.49,47.59359,-54.27349
2021-12-27 23:34:00+00:00,4.0,13.97,4.0,15.95,12.49,47.59359,-54.27349
2021-12-27 23:44:00+00:00,3.0,14.31,0.0,17.0,12.49,47.59359,-54.27349
2021-12-27 23:54:00+00:00,8.0,14.35,1.0,18.57,12.49,47.59359,-54.27349
